Regional Weather Roundup
Issued by NWS Sterling, VA

Home | Current Version | Previous Version | Graphics & Text | Print | Product List | Glossary On
Versions: 1 2 3 4 5 6 7 8 9 10 11 12 13 14 15 16 17 18 19 20 21 22 23 24 25 26 27 28 29 30 31 32 33 34 35 36 37 38 39 40 41 42 43 44 45 46 47 48 49 50
000
ASUS41 KLWX 061910
RWRLWX

REGIONAL WEATHER ROUNDUP
NATIONAL WEATHER SERVICE BALTIMORE MD/WASHINGTON DC
200 PM EST SAT FEB 06 2016

Note: "FAIR" indicates few or no clouds below 12,000 feet
with no significant weather and/or obstructions to visibility.
 TC=TEMPERATURE CELSIUS

 * =Non NWS site. Station does not report precipitation (e.g. rain,
    snow, etc.), thunder, or fog.

DCZ001-MDZ009-015-VAZ040>042-051-053>054-062000-
WASHINGTON METRO

CITY           SKY/WX    TMP DP  RH WIND       PRES   REMARKS
WASHINGTON NAT PTSUNNY   42  21  43 S9        30.36F
DULLES         PTSUNNY   44  22  41 S10       30.33F
ANDREWS AFB    MOSUNNY   43  20  40 SW10      30.33F
FT BELVOIR     FAIR      42  18  38 VRB5      30.35F
QUANTICO       FAIR      44  27  51 S9        30.36F
COLLEGE PARK*  FAIR      43  19  39 S6        30.34F
LEESBURG*      FAIR      43  23  45 SW7       30.33F
MANASSAS*      SUNNY     43  19  39 S12G17    30.35F
GAITHERSBURG*  MOSUNNY   41  18  38 S7        30.35F

$$

MDZ006>007-011-014-062000-
BALTIMORE METRO

CITY           SKY/WX    TMP DP  RH WIND       PRES   REMARKS
BWI AIRPORT    CLOUDY    43  17  35 SW8       30.33F
MD SCIENCE CTR   N/A     45  18  34 MISG      30.37F
MARTIN STATE   PTSUNNY   43  28  56 SE12      30.37F
ANNAPOLIS      MOSUNNY   41  25  53 SE9       30.35F
FORT MEADE*    MOSUNNY   43  19  39 SW8       30.35F

$$

MDZ012-015-019>023-062000-
MARYLAND EASTERN SHORE

CITY           SKY/WX    TMP DP  RH WIND       PRES   REMARKS
OCEAN CITY     MOSUNNY   41  28  60 VRB5      30.38F
SALISBURY      MOSUNNY   42  23  46 W5        30.36F
BAY BRIDGE AP*   N/A     41  19  42 CALM      30.35F
CAMBRIDGE*     MOSUNNY   41  23  48 SE5       30.36F
EASTON*        PTSUNNY   41  21  45 CALM      30.40F

$$

MDZ017>025-062000-
SOUTHERN MARYLAND

CITY           SKY/WX    TMP DP  RH WIND       PRES   REMARKS
PATUXENT RIVER PTSUNNY   41  26  55 SE12      30.37F
ST INIGOES     MOSUNNY   42  23  46 SE7       30.36F
LEONARDTOWN*   MOSUNNY   43  19  39 W6        30.36F

$$

MDZ003>005-062000-
NORTH CENTRAL MARYLAND

CITY           SKY/WX    TMP DP  RH WIND       PRES   REMARKS
FREDERICK*     SUNNY     39  25  56 SW12G17   30.35F
HAGERSTOWN APT SUNNY     42  16  34 S13       30.27F
WESTMINSTER*   MOSUNNY   39  28  65 S10       30.29F

$$

MDZ501>502-062000-
WESTERN MARYLAND

CITY           SKY/WX    TMP DP  RH WIND       PRES   REMARKS
OAKLAND*       SUNNY     34  16  47 W12G20    30.16F WCI  25
CUMBERLAND*    SUNNY     45  19  36 SE7       30.28F

$$

VAZ025>031-062000-
SHENANDOAH VALLEY

CITY           SKY/WX    TMP DP  RH WIND       PRES   REMARKS
WINCHESTER*    FAIR      43  21  42 S8        30.28F
FRONT ROYAL*   FAIR      45  18  33 SW6       30.28F
LURAY*         FAIR      43  18  36 SW8       30.28F
NEW MARKET*    FAIR      41  19  40 SW6       30.27F
STAUNTON*      FAIR      46  16  31 SW12      30.29F
WAYNESBORO*    FAIR      40   9  27 SW8       30.28F

$$

WVZ021-048>050-054>055-062000-
EASTERN WEST VIRGINIA PANHANDLE

CITY           SKY/WX    TMP DP  RH WIND       PRES   REMARKS
MARTINSBURG    FAIR      42  17  36 S10G17    30.28F
PETERSBURG*    FAIR      45  16  31 CALM      30.25F

$$

VAZ036>039-050-062000-
CENTRAL FOOTHILLS

CITY           SKY/WX    TMP DP  RH WIND       PRES   REMARKS
CHARLOTTESVILL FAIR      44  18  35 S13       30.31F
CULPEPER*      FAIR      41  19  40 S10       30.34F
ORANGE*        FAIR      45  19  36 S7        30.34F
GORDONSVILLE*  FAIR      43  19  37 S8        30.32F
WARRENTON*     FAIR      42  24  48 SW8       30.33F

$$

VAZ055>057-062000-
NORTH AND CENTRAL PIEDMONT

CITY           SKY/WX    TMP DP  RH WIND       PRES   REMARKS
FREDERICKSBRG* FAIR      43  21  40 SW8       30.35F
STAFFORD*      FAIR      43  17  35 S7        30.39F

$$

NCZ024-NYZ072-PAZ021-071-VAZ022-071-062000-
OTHER REGIONAL OBSERVATIONS

CITY           SKY/WX    TMP DP  RH WIND       PRES   REMARKS
NEW YORK CITY  PTSUNNY   38  18  44 VRB6      30.34F
PHILADELPHIA   PTSUNNY   42  18  37 SW9       30.35F
PITTSBURGH     PTSUNNY   42  17  36 W10       30.22F
ROANOKE        PTSUNNY   41  16  36 S5        30.32F
RICHMOND       PTSUNNY   44  19  36 VRB3      30.35F
RALEIGH        MOSUNNY   47  19  33 W9        30.34F

$$

ANZ530>537-062000-
MARINE OBSERVATIONS

STATION/POSITION TIME  TEMP    WIND        PRES
                       AIR SEA DIR/SP/G
                 (UTC) (F)     (DEG/KT/KT) (MB)
THOMAS PT LIGHT  NOT AVBL
BALT KEY BRIDGE  1800   40     210/  7/  8 1028.7F
COVE POINT       1800   36     180/ 10/ 10 1030.1F
LEWISETTA        1806   38 41  110/  6/  7 1029.1F
SOLOMONS ISLAND  1800   39 41  120/  6/  7   N/A

$$




USA.gov is the U.S. government's official web portal to all federal, state and local government web resources and services.